Weather in Rososha

Ukraine / Vinnytsia Region     49°14′38″N   29°11′20″E
temp.,
°C
wind,
m/s
gust,
m/s
humid.,
%
clouds,
%
prec.,
mm/h
press.,
hPa
HPBL,
m
13 april, tue
tue1300:00+7sse118991 0.0 102019
03:00+8se1187100 0.0 102020
06:00+8ese2289100 0.0 101960
09:00+9se2384100 0.0 1019236
12:00+10se3478100 0.0 1019495
15:00+11sse3373100 0.0 1018865
18:00+10sse3479100 0.1 1017517
21:00+8se2587100 0.1 1018179
14 april, wed
wed1400:00+8se3887100 0.0 1017365
03:00+7s3889100 0.6 1016274
06:00+7sse4783100 0.2 1015230
09:00+8s4573100 0.2 1015338
12:00+12s5656100 0.0 10141082
15:00+14sse555098 0.1 10131834
18:00+11se3771100 0.1 1013433
21:00+9se3874100 0.1 1014197
15 april, thu
thu1500:00+8ssw3681100 0.0 1013233
03:00+7e2494100 2.3 1012216
06:00+7e3796100 1.5 1011436
09:00+8ese4590100 1.5 1012476
12:00+9e3484100 0.1 1011517
15:00+9ese3488100 1.0 1010389
18:00+8s2395100 3.8 1010228
21:00+6ssw3595100 8.5 1010295
16 april, fri
fri1600:00+5s4692100 1.3 1010398
03:00+3sse4695100 1.3 1010525
06:00+3se4697100 0.0 1010580
09:00+2sse4798100 0.1 1011540
12:00+3se4896100 0.2 1013691
15:00+5sse468780 0.3 1014626
18:00+7se247199 0.1 1014990
21:00+5ene228352 0.5 101519
17 april, sat
sat1700:00+3e228830 0.0 101622
03:00+2e119133 0.0 101710
06:00+2ene229238 0.0 101827
09:00+7e237748 0.0 1018371
12:00+11ene356085 0.2 10181638
15:00+10ese345997 0.4 10191183
18:00+10ese3568100 0.1 1019486
21:00+5sse228620 0.3 102130